This is the latest recevied weather packets stored in our database for station/object DC4XK-10. If no packets are shown the sender has not sent any weather packets the latest 10 day(s).
| Time | Temp. | Humidity | Pressure | Rain* | Wind** | Luminosity | Snow |
|---|---|---|---|---|---|---|---|
| 1778098131 | 8.89° C | 89% | 1009.4 hPa | 0 mm | 0 m/s | - | - |
| 1778096331 | 9.44° C | 89% | 1009.4 hPa | 0 mm | 0 m/s | - | - |
| 1778095731 | 9.44° C | 88% | 1009.1 hPa | 0 mm | 0 m/s | - | - |
| 1778095134 | 9.44° C | 88% | 1009.3 hPa | 0 mm | 0 m/s | - | - |
| 1778093931 | 9.44° C | 87% | 1008.9 hPa | 0 mm | 0 m/s | - | - |
| 1778092131 | 10° C | 83% | 1008.6 hPa | 0 mm | 0 m/s | - | - |
| 1778091531 | 10° C | 82% | 1008.7 hPa | 0 mm | 0 m/s | - | - |
| 1778090931 | 10.56° C | 80% | 1008.4 hPa | 0 mm | 0 m/s | - | - |
| 1778090330 | 10.56° C | 77% | 1008.3 hPa | 0 mm | 0 m/s | - | - |
| 1778089731 | 10.56° C | 75% | 1008.3 hPa | 0 mm | 0 m/s | - | - |
| 1778088531 | 11.11° C | 75% | 1008 hPa | 0 mm | 0 m/s | - | - |
| 1778087931 | 11.11° C | 74% | 1008 hPa | 0 mm | 0 m/s | - | - |
| 1778085531 | 11.67° C | 65% | 1007.8 hPa | 0 mm | 0 m/s | - | - |
| 1778084932 | 12.22° C | 66% | 1008 hPa | 0 mm | 0 m/s | - | - |
| 1778084333 | 12.78° C | 66% | 1008 hPa | 0 mm | 0.45 m/s, 15° | - | - |
| 1778083133 | 11.67° C | 66% | 1008.2 hPa | 0 mm | 0 m/s | - | - |
| 1778078331 | 14.44° C | 63% | 1008.1 hPa | 0 mm | 0 m/s | - | - |
| 1778077131 | 14.44° C | 59% | 1007.7 hPa | 0 mm | 0.45 m/s, 83° | - | - |
| 1778075931 | 15° C | 62% | 1007.7 hPa | 0 mm | 0.45 m/s, 295° | - | - |
| 1778074131 | 15° C | 59% | 1007.7 hPa | 0 mm | 0 m/s | - | - |
| 1778073531 | 16.11° C | 58% | 1007.7 hPa | 0 mm | 0 m/s | - | - |
| 1778072932 | 15.56° C | 56% | 1007.7 hPa | 0 mm | 0.45 m/s, 26° | - | - |
| 1778072331 | 16.67° C | 53% | 1007.5 hPa | 0 mm | 0.45 m/s, 11° | - | - |
| 1778071133 | 16.11° C | 51% | 1007.7 hPa | 0 mm | 2.24 m/s, 326° | - | - |
| 1778070531 | 16.11° C | 52% | 1007.6 hPa | 0 mm | 0 m/s | - | - |
* Rain latest hour (hover to see other rain measurements)
** Current wind speed in m/s (hover to see current wind gust speed)